Location: Clyde
(45.1830°S, 169.3170°E)
Time: 17:58:24
(UTC+13:00)

COSMOS 2428 - Pass Details

Date: 24 January 2019
Orbit: 845 x 856 km, 70.9° (Epoch: 22 October)

Event Time Altitude Azimuth Distance (km) Brightness Sun altitude
Exits shadow 22:59:41 20° 58° (ENE) 1,906 3.9 -14.3°
Maximum altitude 23:01:11 22° 80° (E) 1,809 4.0 -14.5°
Drops below altitude 10° 23:05:28 10° 128° (SE) 2,517 5.1 -15.0°
Sets 23:08:28 0° 142° (SE) 3,463 6.0 -15.3°
